Location: Adrasan
(36.3319°N, 30.4314°E)
Time: 22:40:28
(UTC+00:00)

Envisat - Visible Passes

Search period start: 15 April 2024 00:00
Search period end: 25 April 2024 00:00
Orbit: 762 x 764 km, 98.3° (Epoch: 15 April)

Date Brightness Start Highest point End Pass type
(mag) Time Alt. Az. Time Alt. Az. Time Alt. Az.
15 Apr 4.6 00:30:59 10° NE 00:35:19 28° E 00:36:22 26° ESE visible
15 Apr 3.9 02:09:50 10° N 02:14:11 29° WNW 02:16:32 20° WSW visible
15 Apr 5.6 23:56:05 10° ENE 23:57:40 11° E 23:58:42 11° ESE visible
16 Apr 2.9 01:32:01 10° N 01:37:04 69° WNW 01:38:52 39° SW visible
17 Apr 3.7 00:54:49 10° NNE 00:59:45 49° E 01:01:13 38° SSE visible
17 Apr 4.6 02:35:01 10° NNW 02:38:17 17° WNW 02:41:23 11° WSW visible
18 Apr 5.0 00:18:27 10° NE 00:22:14 21° E 00:23:33 19° ESE visible
18 Apr 3.5 01:56:36 10° N 02:01:17 39° WNW 02:03:43 24° WSW visible
19 Apr 2.9 01:19:00 10° NNE 01:24:06 88° ESE 01:26:04 39° SSW visible
20 Apr 4.2 00:42:02 10° NNE 00:46:43 37° E 00:48:23 29° SE visible
20 Apr 4.3 02:21:31 10° NNW 02:25:25 23° WNW 02:28:34 13° WSW visible
21 Apr 5.3 00:06:11 10° ENE 00:09:08 15° E 00:10:44 14° ESE visible
21 Apr 3.2 01:43:27 10° N 01:48:22 52° WNW 01:50:53 27° SW visible
22 Apr 3.2 01:06:04 10° NNE 01:11:07 66° ESE 01:13:13 35° S visible
22 Apr 4.8 02:47:05 10° NW 02:49:29 13° WNW 02:51:51 10° W visible
23 Apr 4.7 00:29:21 10° NE 00:33:40 27° E 00:35:33 22° SE visible
23 Apr 3.9 02:08:10 10° N 02:12:33 30° WNW 02:15:43 16° WSW visible
23 Apr 5.6 23:54:36 10° ENE 23:56:01 11° E 23:57:25 10° ESE visible
24 Apr 2.9 01:30:22 10° N 01:35:25 71° WNW 01:38:02 29° SSW visible
